Tracking 18851 objects as of 25-Nov-2017
HD Live streaming from Space Station
objects crossing your sky now

FENGYUN 1C DEB

Track FENGYUN 1C DEB now!
10-day predictions


NORAD ID: 33599
Int'l Code: 1999-025DCG
Perigee: 504.4 km
Apogee: 942.5 km
Inclination: 96.6 °
Period: 99.1 minutes
Semi major axis: 7094 km
RCS: 0.0095 m2 (small)
Launch date: May 10, 1999
Source: People's Republic of China (PRC)
Launch site: Taiyaun Space Center, China (TSC)

Note: This is SATELLITE DEBRIS
aabbcc
Your satellite tracking list
Your tracking list is empty




NASA's NSSDC Master Catalog

Two Line Element Set (TLE):
1 33599U 99025DCG 17327.46412731  .00001177  00000-0  15753-3 0  9992
2 33599  96.6267 201.2119 0308726 194.4748 164.7461 14.52858208530815
Source of the keplerian elements: AFSPC